Temp
18 18 19 20 20 21 21 22 22 22 23 23 24 24 24 25 26 26 26 30 29 27 27 25 25 25 24 24 24 24 25 27 28 30 29 30 28 28 28 26 27 27 25 24 23
18 18 18 20 20 21 21 22 22 22 23 23 24 24 24 25 25 25 30 30 29 27 26 26 24 24 22 23 25 24 25 30 31 30 30 29 29 27 27 26 25 25 25 24 23
18 18 18 20 21 21 21 22 22 23 23 24 24 25 24 25 25 30 30 29 28 27 29 27 25 26 25 24 27 28 28 32 32 31 31 29 28 28 27 25 25 24 24 24 23
18 18 19 20 21 21 22 22 22 23 24 24 24 24 25 24 29 30 30 29 28 28 28 26 26 26 26 27 29 28 31 32 31 32 31 29 29 28 28 26 27 25 25 25 24
18 18 19 20 21 22 22 22 22 24 24 24 24 25 25 26 28 30 29 29 29 27 28 27 26 25 26 27 28 29 30 33 33 32 31 31 29 28 27 27 26 26 25 25 25
18 18 19 21 22 22 22 23 23 24 25 25 24 24 24 29 30 29 29 28 29 28 28 27 26 26 26 27 27 28 29 32 31 32 31 30 28 28 27 27 26 26 25 25 25
18 19 20 21 22 23 23 23 24 24 25 25 24 24 24 29 30 29 29 29 30 30 30 28 28 28 26 28 28 29 32 31 31 30 29 29 28 27 27 27 26 26 26 25 25
19 19 20 22 22 23 24 24 24 24 25 24 24 23 26 30 29 29 29 28 29 30 30 29 28 26 27 27 27 27 27 28 31 30 29 28 26 27 27 27 26 27 26 26 25
19 20 20 22 23 24 24 25 25 24 24 24 23 23 28 28 27 29 29 29 28 28 29 29 28 26 27 25 26 24 26 27 30 31 30 27 26 27 27 27 26 27 27 27 26
20 20 21 22 23 24 25 26 24 24 23 23 23 25 27 28 29 29 30 30 30 29 29 29 25 25 25 26 26 26 26 27 26 28 29 28 27 27 27 27 27 27 27 27 27
20 20 21 22 23 25 25 23 21 23 22 26 28 28 30 32 31 30 30 30 31 30 28 27 27 26 29 27 29 29 28 27 27 29 28 27 27 27 28 27 27 27 27 28 27
19 21 22 23 24 25 24 22 26 27 25 24 25 26 29 32 31 31 31 30 29 28 29 29 27 29 29 28 28 29 27 26 27 27 26 26 26 28 28 28 28 26 26 26 27
20 21 23 24 25 24 23 27 27 27 24 27 26 28 30 30 30 31 31 31 31 29 29 27 31 33 30 28 28 27 27 26 27 26 25 25 26 26 27 27 28 28 27 27 26
21 22 23 24 23 23 24 27 28 28 22 27 29 30 31 30 32 33 32 32 30 30 29 29 32 33 30 28 27 26 29 29 26 25 25 26 25 25 27 26 26 29 27 27 26
21 21 22 24 23 22 28 29 29 27 27 30 30 33 31 31 33 33 32 32 30 31 30 30 32 32 30 30 29 29 29 29 26 24 24 23 24 24 26 27 27 28 28 27 27
22 21 22 22 22 27 28 30 29 23 28 31 31 31 31 32 32 33 34 32 32 30 30 30 32 33 31 32 30 31 27 24 24 23 24 24 24 24 24 28 29 29 30 28 27
23 23 23 23 24 27 28 24 22 24 29 32 31 30 30 31 32 31 31 29 29 29 27 29 31 32 33 32 29 29 25 22 24 24 25 24 24 27 27 28 30 28 29 29 28
23 25 25 26 27 27 27 23 26 27 27 30 30 28 30 30 31 31 30 29 29 29 25 28 27 31 32 32 29 27 26 27 27 23 25 24 24 27 25 26 25 24 26 29 29
24 23 25 27 28 26 21 22 24 25 29 29 29 29 29 29 31 30 29 28 29 26 28 24 27 30 31 32 31 31 27 27 24 25 24 23 25 26 23 22 21 22 22 21 21
21 22 25 27 27 26 20 22 23 24 29 30 29 28 28 28 29 28 29 30 30 30 26 28 28 29 31 32 31 29 28 28 24 27 28 25 26 25 22 21 21 21 20 19 18
21 21 25 26 28 19 21 21 24 27 28 30 28 28 28 28 28 28 28 30 29 29 27 25 26 29 31 31 30 30 28 24 24 23 25 25 24 24 22 21 20 19 17 17 16
16 22 25 26 21 14 21 23 26 28 29 30 29 29 28 27 28 29 29 29 28 29 29 27 23 26 28 29 28 30 30 25 24 26 22 23 23 22 21 20 19 18 17 17 16
14 15 25 27 21 20 21 24 27 28 29 29 29 29 28 28 28 28 28 29 29 29 30 27 24 24 27 27 28 28 28 24 21 21 22 24 23 21 20 20 19 19 17 17 16
15 20 18 16 17 23 22 24 26 28 27 27 27 26 27 26 25 28 27 29 27 28 24 23 20 24 24 26 25 26 26 27 24 23 22 22 22 21 20 20 18 18 18 17 15
15 18 18 18 20 18 20 23 25 26 27 25 26 26 27 26 25 25 26 26 27 26 26 24 25 26 24 24 24 24 24 24 26 24 26 25 21 22 21 20 19 18 16 16 15
15 15 14 16 16 19 18 22 23 28 28 27 27 28 25 26 26 26 26 25 26 27 26 21 23 25 24 25 25 24 24 24 24 22 21 22 22 23 19 19 18 18 17 17 17
16 16 14 16 17 19 20 21 23 23 28 28 27 26 27 27 25 25 24 22 23 25 23 22 21 21 23 22 24 22 23 23 23 22 21 23 21 18 18 18 18 18 18 17 16
Height
798 795 791 788 785 783 781 778 775 775 776 776 774 772 771 769 768 769 769 768 769 773 775 779 781 784 785 788 787 788 804 806 798 791 790 781 794 793 793 801 800 801 808 816 822
798 794 791 787 784 781 779 777 773 773 774 774 773 771 769 768 767 767 765 765 768 772 773 776 782 786 793 791 786 793 802 789 773 775 784 784 788 795 803 806 810 808 814 820 824
797 793 790 786 783 780 778 776 772 771 772 772 771 770 768 766 766 760 762 765 768 770 770 771 779 783 791 789 778 781 791 766 769 768 772 783 793 790 803 816 806 809 814 819 824
796 792 789 785 782 779 777 774 771 770 769 770 770 768 767 766 782 756 760 764 767 769 770 770 775 781 791 792 778 789 767 766 770 767 776 786 787 798 798 800 802 806 808 816 823
795 791 787 784 781 777 775 773 769 768 767 768 768 767 766 767 763 757 760 764 765 766 765 770 778 781 793 784 779 782 771 763 764 769 777 779 790 796 801 798 804 809 814 818 822
793 789 785 782 779 775 773 771 768 766 766 767 767 766 766 771 757 757 760 763 764 767 771 770 776 778 784 785 785 779 775 772 771 773 777 788 796 796 804 801 806 810 814 816 819
791 787 783 780 776 773 771 768 766 765 765 766 766 766 767 763 757 759 760 762 761 764 767 767 764 774 778 784 778 778 783 782 782 780 790 786 810 810 800 803 808 811 812 815 817
789 785 781 777 774 771 769 766 765 764 764 765 765 766 768 759 758 760 763 764 764 763 762 765 769 774 779 779 783 794 800 815 792 786 789 794 828 808 801 804 809 810 812 814 816
788 783 779 774 771 769 767 765 765 765 764 765 766 767 767 760 761 759 761 763 765 770 772 774 771 784 787 801 812 817 827 821 806 787 792 803 821 806 801 803 808 808 809 810 813
786 781 776 772 768 767 765 764 765 765 765 766 767 771 761 761 757 758 761 764 767 769 776 779 786 796 799 807 829 829 827 821 825 806 796 806 811 803 801 804 805 804 803 805 809
784 779 774 770 766 764 764 765 769 771 767 762 760 761 754 753 756 758 759 763 765 770 793 785 803 814 792 797 793 797 809 816 809 795 803 804 810 805 800 804 807 804 804 802 804
782 776 772 768 764 762 762 764 764 766 773 752 755 755 752 753 760 756 761 770 774 790 782 795 808 782 782 793 798 802 813 818 808 801 807 813 813 803 801 797 795 800 803 801 801
779 774 769 766 762 761 761 761 760 760 775 760 752 751 748 749 759 755 754 761 773 788 790 802 779 764 779 794 802 809 812 814 812 809 813 817 820 810 802 796 790 789 791 795 797
777 771 767 764 765 761 759 759 757 756 798 775 759 747 744 745 756 741 745 756 770 781 782 786 762 765 779 793 795 817 789 794 808 820 835 812 847 818 804 802 796 787 790 792 796
773 768 765 764 762 762 760 756 754 756 819 762 755 737 739 752 748 747 742 751 772 772 775 785 772 773 785 780 781 789 781 798 813 830 831 834 841 817 801 802 788 784 783 786 790
769 765 762 761 761 759 757 754 755 803 808 765 749 753 756 751 751 744 747 746 750 768 771 773 757 760 766 760 766 766 798 820 825 837 849 828 835 819 810 782 776 776 774 779 783
765 760 758 759 758 758 757 758 807 820 767 767 764 757 762 764 759 760 767 775 785 797 800 778 773 759 752 769 774 784 815 861 858 855 843 822 835 801 778 769 759 769 770 771 775
759 755 755 756 757 758 757 784 808 786 782 756 757 763 773 768 765 764 773 783 770 777 806 807 811 765 751 763 784 794 801 824 848 864 839 823 836 797 775 763 761 768 769 768 773
756 755 754 754 755 758 771 811 803 790 765 765 763 775 780 771 767 770 777 782 771 774 795 814 804 757 753 750 759 775 799 781 821 823 834 827 804 787 784 785 780 780 779 785 785
757 756 755 756 758 760 786 802 788 771 759 759 777 774 790 782 780 780 781 768 767 759 767 780 799 764 753 747 753 765 767 800 815 829 830 823 808 807 800 798 792 792 793 796 797
760 763 758 759 760 773 800 798 778 757 756 762 772 777 783 784 781 782 782 768 762 760 762 775 788 778 761 767 772 773 784 795 801 816 831 836 820 789 797 797 800 802 804 805 806
765 777 762 761 782 800 794 782 763 758 750 756 757 766 775 777 780 779 779 771 758 759 770 770 793 798 781 759 757 754 764 784 814 811 823 821 820 796 797 799 801 804 804 805 807
781 781 764 763 798 798 785 775 765 761 757 758 764 760 764 774 784 778 773 757 756 758 762 765 793 812 793 779 763 771 767 780 797 805 821 821 818 799 802 803 803 801 802 803 800
782 790 779 777 787 787 789 780 774 756 759 760 765 764 771 778 777 779 777 761 757 756 756 763 798 797 814 794 785 785 779 770 786 809 814 810 806 800 802 804 808 805 806 812 813
789 800 798 805 793 796 790 785 780 774 761 763 771 772 773 785 784 785 776 772 758 756 757 767 790 782 789 787 784 790 788 780 779 786 790 787 799 792 797 801 807 810 812 814 814
800 805 801 801 799 794 795 788 786 768 765 770 772 767 772 780 778 782 777 778 774 759 762 774 793 786 800 788 784 794 788 784 783 790 793 792 797 787 800 802 809 811 812 812 811
802 802 805 805 802 798 797 793 783 776 761 761 764 769 770 765 762 760 761 767 770 769 774 778 791 799 811 798 792 812 800 794 787 788 793 797 795 797 804 808 808 809 807 807 811
Wind_Speed
20 21 21 19 19 17 15 13 13 11 9 8 7 9 10 8 5 2 4 4 8 16 14 14 5 3 1 5 1 1 1 3 6 7 6 14 9 7 6 11 2 2 7 17 24
20 22 22 19 19 18 16 14 13 11 8 7 6 8 9 10 1 7 4 9 15 19 21 16 6 8 1 3 3 2 2 3 5 6 13 11 16 8 7 7 9 17 17 25 24
21 22 22 20 19 19 16 14 13 11 8 6 6 6 9 7 1 3 14 14 21 17 16 24 20 6 2 1 4 1 3 6 6 15 19 16 12 5 16 7 17 21 20 22 23
22 23 23 20 19 19 16 14 14 12 8 5 4 5 6 1 4 4 16 19 19 18 16 15 5 2 2 2 6 4 6 5 8 13 14 17 12 9 3 7 14 16 22 23 17
23 24 23 21 20 18 16 14 13 10 6 3 3 4 0 1 4 8 25 19 19 25 17 11 8 1 0 5 7 2 8 13 11 12 14 15 9 11 5 15 16 18 18 16 17
23 24 24 22 20 18 16 14 12 8 4 1 1 2 1 1 5 21 25 24 18 14 11 17 10 7 2 1 2 5 8 7 5 14 16 14 9 5 11 17 18 18 17 15 17
23 24 24 23 21 17 15 14 9 5 2 1 1 2 2 5 4 23 26 25 18 10 6 3 16 4 5 1 3 3 16 12 5 5 8 16 3 6 16 17 18 17 16 14 17
24 26 26 23 20 17 13 11 4 3 0 2 2 2 3 2 12 24 20 19 16 4 9 12 9 4 2 3 4 6 6 3 2 7 8 4 4 8 13 17 17 16 14 14 14
25 27 27 24 20 15 12 6 2 3 3 3 2 1 4 14 14 23 20 11 16 6 0 9 4 4 5 3 4 7 4 4 6 7 3 3 4 12 14 14 14 14 14 14 13
26 27 27 25 18 14 10 1 3 3 3 2 1 2 1 4 7 18 19 9 5 6 5 1 4 4 3 2 6 4 5 2 3 6 8 3 3 15 15 14 15 14 14 14 14
28 28 27 24 19 13 4 5 3 3 2 7 4 2 2 4 12 10 16 7 1 3 5 6 3 6 11 7 1 12 12 10 5 5 1 6 2 17 16 12 12 12 12 14 13
32 30 26 22 16 10 3 2 2 2 6 7 4 5 6 1 2 6 18 6 5 6 1 1 8 14 10 7 5 6 8 1 3 2 3 2 10 14 15 18 15 10 10 13 14
32 30 25 21 10 2 3 3 11 7 3 6 5 5 5 10 7 7 16 6 5 6 8 7 11 5 10 6 6 4 7 9 4 5 2 0 6 6 7 8 11 10 14 12 16
32 29 22 18 2 6 5 13 15 4 4 5 4 6 4 6 3 7 20 6 4 9 7 5 9 10 9 4 6 6 12 12 11 8 4 5 4 7 12 8 9 15 14 15 14
34 25 20 12 6 2 7 15 6 4 3 1 4 1 3 7 3 4 6 4 7 6 5 8 5 5 4 6 13 10 9 5 7 4 3 2 1 6 7 16 19 15 16 18 17
30 24 18 3 4 3 12 9 3 6 0 1 4 5 5 0 2 3 3 3 2 3 2 7 4 3 7 4 19 8 11 9 4 3 3 8 6 6 6 26 21 12 18 19 19
27 19 10 5 2 6 7 4 5 3 3 2 5 2 3 5 2 6 5 3 6 2 6 5 4 4 4 2 6 9 8 3 2 1 6 2 7 12 5 6 24 18 14 17 17
29 7 3 7 3 4 3 5 2 3 6 4 1 3 4 1 2 1 5 5 4 2 3 4 9 6 5 6 8 13 9 6 7 5 3 5 6 5 10 4 7 7 4 11 15
18 5 3 3 5 3 6 3 6 5 3 5 2 5 3 4 0 2 3 3 5 8 9 6 7 3 4 4 8 4 6 6 7 2 3 4 5 3 13 13 14 13 14 11 9
10 6 3 5 8 5 5 4 4 6 3 1 3 3 3 3 3 3 1 4 3 4 8 3 4 5 3 2 1 7 5 2 3 4 4 5 4 4 3 8 11 12 12 11 12
5 4 9 8 3 5 3 6 6 7 4 3 3 3 3 3 3 1 1 3 5 7 4 4 7 10 3 4 7 0 2 5 5 4 6 3 5 4 7 10 11 10 11 12 12
4 3 6 2 4 1 2 5 5 6 4 3 4 3 4 2 2 1 1 3 6 2 2 2 4 7 14 4 5 2 2 6 5 4 1 3 4 6 8 12 13 11 12 11 12
2 2 7 1 2 3 6 5 4 3 3 2 2 1 0 2 2 2 0 4 3 4 3 4 0 2 7 6 5 5 3 4 4 3 6 6 4 7 9 11 10 15 12 11 14
2 4 4 4 0 2 5 5 7 5 4 4 3 5 4 4 4 2 3 4 7 3 3 7 3 5 6 4 2 3 6 3 4 4 5 5 8 12 13 10 7 7 8 8 5
4 1 1 3 4 5 2 5 5 5 4 8 5 4 2 4 4 4 1 5 5 5 2 4 3 3 4 9 8 6 6 7 3 1 4 6 7 14 14 13 10 8 9 9 8
3 3 4 2 4 5 6 5 3 3 2 2 2 1 4 4 5 4 4 4 6 3 2 2 3 4 6 5 12 7 11 6 4 5 5 7 4 8 5 7 8 9 8 8 10
6 3 3 4 5 3 3 5 7 9 3 2 2 1 3 3 7 6 6 3 3 3 0 3 4 3 5 2 3 7 8 8 2 4 5 4 5 7 7 9 10 9 9 7 6
Wind_Direction
355 353 352 351 348 345 341 337 327 330 333 337 342 337 337 333 318 179 218 139 150 136 126 138 71 133 97 354 184 195 37 175 166 162 132 135 123 179 87 130 161 159 122 144 146
352 351 350 350 346 343 340 336 325 328 331 333 340 335 332 331 303 221 155 150 146 136 119 126 83 97 23 250 210 244 99 221 163 166 143 133 135 131 123 133 103 101 115 139 145
350 349 348 348 343 342 340 334 325 325 326 330 334 334 326 326 218 220 154 144 140 147 141 117 123 143 294 327 315 294 259 136 131 132 135 138 135 117 141 145 158 146 147 153 155
347 347 346 346 342 341 338 334 327 323 319 327 327 328 329 292 124 244 172 151 154 147 137 109 73 122 194 272 217 252 234 223 139 135 139 148 131 143 166 164 158 147 152 155 161
347 345 346 344 342 339 335 333 329 324 315 322 319 330 5 221 239 146 157 163 159 165 153 128 137 124 273 299 322 7 322 136 155 139 138 146 146 141 133 134 136 145 154 161 170
347 346 345 343 342 338 334 333 330 324 311 301 305 358 46 35 152 154 159 162 169 158 148 157 164 193 180 261 30 323 299 124 120 144 141 132 131 95 151 141 147 159 168 172 178
347 346 346 342 341 337 335 335 335 332 294 200 171 116 90 233 196 160 165 166 176 150 155 147 116 130 173 217 148 307 94 99 49 108 107 110 28 157 154 155 159 172 176 178 189
349 347 344 343 341 337 338 340 3 18 146 151 143 124 231 70 165 162 170 176 183 192 38 113 99 84 57 1 32 52 54 44 340 129 155 77 201 160 166 164 175 176 185 187 195
347 345 346 345 340 337 342 348 81 82 96 118 84 70 307 119 165 183 178 181 200 214 197 126 62 48 70 79 61 5 107 30 147 6 130 91 135 181 179 180 185 188 190 198 183
347 345 345 346 339 335 350 69 124 109 111 105 329 351 223 213 170 193 195 178 159 159 76 68 44 34 39 103 191 144 84 86 22 323 35 34 181 176 191 189 197 197 198 197 181
349 345 343 344 338 330 14 131 32 20 202 195 186 249 271 218 156 186 198 198 245 114 180 186 153 198 225 189 8 148 168 150 205 190 181 192 281 193 196 200 209 213 212 210 195
350 344 341 342 330 321 5 109 158 109 312 236 242 276 259 92 28 198 170 160 138 212 216 129 239 231 214 128 115 129 141 109 266 3 110 234 252 212 201 212 208 189 195 196 197
348 342 338 341 323 21 309 256 343 325 136 297 198 202 216 153 204 238 159 182 165 185 188 189 246 253 176 156 146 150 194 181 185 122 37 346 308 200 225 228 229 207 196 193 188
345 339 337 343 98 337 289 339 336 156 64 276 227 269 167 161 237 213 182 145 201 209 187 226 270 263 155 173 138 176 208 189 145 142 214 159 258 244 218 235 231 221 197 196 200
342 341 335 333 301 246 322 335 9 91 58 150 210 140 141 152 197 232 170 95 220 218 113 241 306 311 148 204 171 228 168 151 150 64 342 275 57 261 207 227 231 214 196 197 199
342 335 325 316 257 302 340 346 47 40 270 228 171 180 121 154 241 54 129 64 197 175 231 250 270 226 223 182 185 75 100 43 52 31 295 199 169 266 191 218 229 209 205 188 193
341 322 300 211 205 354 348 39 46 125 327 201 195 117 148 198 259 153 168 184 178 123 281 295 216 255 224 152 73 101 104 63 23 248 236 217 161 248 241 254 219 194 200 192 191
341 321 288 239 188 9 58 53 147 235 266 321 337 94 124 86 287 23 146 179 238 159 117 178 314 183 169 172 168 172 170 161 195 204 225 92 228 278 320 346 97 80 98 188 192
349 345 321 48 194 159 74 86 207 209 250 313 46 82 18 1 2 94 197 259 228 172 169 155 268 275 213 210 142 204 183 194 116 50 105 206 278 62 43 38 56 65 73 62 62
347 340 335 118 111 69 75 222 233 214 316 130 90 90 115 336 42 52 39 287 321 180 139 275 295 210 280 155 124 150 170 77 5 164 243 299 276 199 53 95 89 77 75 63 49
13 47 355 151 123 49 135 238 269 267 210 117 155 119 136 170 182 208 196 305 4 311 138 149 146 277 12 199 194 17 280 42 119 133 166 187 253 345 162 136 109 83 75 69 59
18 60 25 176 50 23 160 207 260 270 351 322 101 97 126 150 154 163 63 214 338 261 354 201 170 211 229 273 304 178 229 146 126 251 120 157 267 98 134 138 115 115 113 102 100
61 272 19 51 59 327 297 285 244 297 226 204 105 77 346 105 65 235 275 254 335 332 346 188 351 13 351 352 357 68 339 124 117 76 186 144 256 133 149 141 146 144 149 159 145
52 30 334 43 110 38 329 308 332 339 65 68 71 73 68 51 20 337 315 306 341 325 6 92 101 150 187 224 207 5 329 103 132 122 177 214 166 173 166 163 172 146 141 155 118
27 17 185 343 333 350 295 345 330 342 31 33 46 85 106 43 27 10 300 318 315 323 59 102 110 107 57 108 87 59 2 4 95 22 152 224 167 176 175 173 178 160 140 134 128
61 27 355 291 301 348 5 333 294 311 94 334 93 133 131 155 181 245 186 201 237 308 60 29 160 129 49 84 74 61 21 18 37 89 58 75 79 151 117 132 159 169 170 168 167
12 22 98 305 343 33 321 309 304 306 313 109 182 72 309 257 199 218 211 80 326 303 67 87 121 83 181 298 50 30 342 342 125 64 146 190 169 139 136 165 184 187 197 190 160